Track STARLINK-1109 now! 10-day predictions STARLINK-1109 is classified as:
1 44945U 20001AH 21021.47190984 .00001955 00000-0 15014-3 0 9991 2 44945 53.0198 95.7888 0000676 113.9688 246.1371 15.06386871 57780